Overview Statistics Trail Chart Weather Telemetry Raw packets
 

This is the latest recevied weather packets stored in our database for station/object KQ7A. If no packets are shown the sender has not sent any weather packets the latest 10 day(s).

<< 90 91 92 93 94 95 96 >>
Time Temp. Humidity Pressure Rain* Wind** Luminosity Snow
1788015203 15.56° C 91% 1020.4 hPa 0 mm - 63 W/m² -
1788014901 14.44° C 95% 1020.4 hPa 0 mm - 53 W/m² -
1788014596 13.89° C 96% 1020.6 hPa 0 mm - 49 W/m² -
1788014292 13.33° C 97% 1020.6 hPa 0 mm - 45 W/m² -
1788013987 12.78° C 97% 1020.7 hPa 0 mm - 42 W/m² -
1788013681 12.22° C 98% 1020.5 hPa 0 mm - 39 W/m² -
1788013375 11.67° C 98% 1020.7 hPa 0 mm - 31 W/m² -
1788013075 11.11° C 98% 1020.5 hPa 0 mm - 20 W/m² -
1788012774 11.11° C 98% 1020.5 hPa 0 mm - 19 W/m² -
1788012470 10.56° C 98% 1020.4 hPa 0 mm - 18 W/m² -
1788012168 10° C 98% 1020.6 hPa 0 mm - 16 W/m² -
1788011868 10° C 97% 1020.4 hPa 0 mm - 14 W/m² -
1788011567 10° C 97% 1020.4 hPa 0 mm - 11 W/m² -
1788011263 10° C 97% 1020.5 hPa 0 mm - 10 W/m² -
1788010961 10° C 97% 1020.4 hPa 0 mm - 7 W/m² -
1788010656 10.56° C 97% 1020.5 hPa 0 mm - 5 W/m² -
1788010355 10.56° C 97% 1020.5 hPa 0 mm - 3 W/m² -
1788010055 10.56° C 97% 1020.6 hPa 0 mm - 1 W/m² -
1788009745 11.11° C 97% 1020.3 hPa 0 mm - 0 W/m² -
1788009442 11.11° C 98% 1020.5 hPa 0 mm - 0 W/m² -
1788009144 10.56° C 98% 1020.4 hPa 0 mm - 0 W/m² -
1788008833 10.56° C 97% 1020.4 hPa 0 mm - 0 W/m² -
1788008527 10.56° C 97% 1020.3 hPa 0 mm - 0 W/m² -
1788008224 10.56° C 97% 1020.5 hPa 0 mm - 0 W/m² -
1788007923 10.56° C 97% 1020.6 hPa 0 mm - 0 W/m² -

* Rain latest hour (hover to see other rain measurements)
** Current wind speed in m/s (hover to see current wind gust speed)